Time,TemperatureF,DewpointF,PressureIn,WindDirection,WindDirectionDegrees,WindSpeedMPH,WindSpeedGustMPH,Humidity,HourlyPrecipIn,Conditions,Clouds,dailyrainin,SoftwareType,DateUTC
2013-04-02 00:03:00,25.0,15.0,-100.00,West,270,4.0,4.0,65,0.00,,,-99.99,,2013-04-02 04:03:00,
2013-04-02 00:13:00,24.0,14.0,-100.00,West,265,2.0,4.0,65,0.00,,,-99.99,,2013-04-02 04:13:00,
2013-04-02 00:23:00,23.0,13.0,-100.00,West,260,3.0,3.0,66,0.00,,,-99.99,,2013-04-02 04:23:00,
2013-04-02 00:33:00,22.0,13.0,-100.00,WSW,250,2.0,3.0,68,0.00,,,-99.99,,2013-04-02 04:33:00,
2013-04-02 00:43:00,23.0,14.0,-100.00,WSW,245,4.0,4.0,69,0.00,,,-99.99,,2013-04-02 04:43:00,
2013-04-02 00:53:00,22.0,14.0,-100.00,WSW,250,3.0,4.0,70,0.00,,,-99.99,,2013-04-02 04:53:00,
2013-04-02 01:02:00,22.0,14.0,-100.00,West,275,2.0,3.0,71,0.00,,,-99.99,,2013-04-02 05:02:00,
2013-04-02 01:12:00,21.0,14.0,-100.00,West,265,3.0,4.0,72,0.00,,,-99.99,,2013-04-02 05:12:00,
2013-04-02 01:22:00,22.0,15.0,-100.00,West,260,3.0,3.0,73,0.00,,,-99.99,,2013-04-02 05:22:00,
2013-04-02 01:32:00,22.0,15.0,-100.00,SW,235,4.0,4.0,74,0.00,,,-99.99,,2013-04-02 05:32:00,
2013-04-02 01:42:00,21.0,14.0,-100.00,SW,235,4.0,4.0,74,0.00,,,-99.99,,2013-04-02 05:42:00,
2013-04-02 01:52:00,22.0,15.0,-100.00,WSW,240,4.0,6.0,76,0.00,,,-99.99,,2013-04-02 05:52:00,
2013-04-02 02:02:00,22.0,15.0,-100.00,WSW,240,4.0,6.0,76,0.00,,,-99.99,,2013-04-02 06:02:00,
2013-04-02 02:12:00,21.0,15.0,-100.00,West,265,4.0,4.0,77,0.00,,,-99.99,,2013-04-02 06:12:00,
2013-04-02 02:22:00,20.0,15.0,-100.00,West,260,2.0,5.0,77,0.00,,,-99.99,,2013-04-02 06:22:00,
2013-04-02 02:32:00,21.0,15.0,-100.00,WSW,250,3.0,3.0,78,0.00,,,-99.99,,2013-04-02 06:32:00,
2013-04-02 02:42:00,21.0,15.0,-100.00,WSW,250,3.0,3.0,78,0.00,,,-99.99,,2013-04-02 06:42:00,
2013-04-02 02:52:00,21.0,15.0,-100.00,West,265,3.0,4.0,78,0.00,,,-99.99,,2013-04-02 06:52:00,
2013-04-02 03:02:00,20.0,15.0,-100.00,West,265,4.0,4.0,79,0.00,,,-99.99,,2013-04-02 07:02:00,
2013-04-02 03:12:00,20.0,15.0,-100.00,West,270,4.0,4.0,80,0.00,,,-99.99,,2013-04-02 07:12:00,
2013-04-02 03:22:00,22.0,17.0,-100.00,West,260,4.0,6.0,80,0.00,,,-99.99,,2013-04-02 07:22:00,
2013-04-02 03:32:00,22.0,17.0,-100.00,West,260,4.0,6.0,80,0.00,,,-99.99,,2013-04-02 07:32:00,
2013-04-02 03:42:00,21.0,16.0,-100.00,West,265,5.0,6.0,80,0.00,,,-99.99,,2013-04-02 07:42:00,
2013-04-02 03:52:00,21.0,16.0,-100.00,West,265,5.0,6.0,80,0.00,,,-99.99,,2013-04-02 07:52:00,
2013-04-02 04:02:00,21.0,16.0,-100.00,West,260,5.0,6.0,80,0.00,,,-99.99,,2013-04-02 08:02:00,
2013-04-02 04:13:00,21.0,16.0,-100.00,West,260,5.0,6.0,80,0.00,,,-99.99,,2013-04-02 08:13:00,
2013-04-02 04:22:00,22.0,17.0,-100.00,West,260,4.0,6.0,80,0.00,,,-99.99,,2013-04-02 08:22:00,
2013-04-02 04:32:00,22.0,17.0,-100.00,West,270,5.0,6.0,79,0.00,,,-99.99,,2013-04-02 08:32:00,
2013-04-02 04:42:00,20.0,15.0,-100.00,West,270,5.0,6.0,79,0.00,,,-99.99,,2013-04-02 08:42:00,
2013-04-02 04:52:00,21.0,16.0,-100.00,West,265,6.0,7.0,80,0.00,,,-99.99,,2013-04-02 08:52:00,
2013-04-02 05:02:00,20.0,16.0,-100.00,West,275,4.0,6.0,80,0.00,,,-99.99,,2013-04-02 09:02:00,
2013-04-02 05:12:00,20.0,16.0,-100.00,West,275,4.0,6.0,80,0.00,,,-99.99,,2013-04-02 09:12:00,
2013-04-02 05:22:00,20.0,16.0,-100.00,West,270,4.0,6.0,82,0.00,,,-99.99,,2013-04-02 09:22:00,
2013-04-02 05:32:00,22.0,17.0,-100.00,West,270,5.0,6.0,82,0.00,,,-99.99,,2013-04-02 09:32:00,
2013-04-02 05:43:00,22.0,18.0,-100.00,West,265,4.0,6.0,82,0.00,,,-99.99,,2013-04-02 09:43:00,
2013-04-02 05:53:00,23.0,18.0,-100.00,WSW,255,6.0,6.0,81,0.00,,,-99.99,,2013-04-02 09:53:00,
2013-04-02 06:03:00,23.0,18.0,-100.00,West,260,5.0,6.0,80,0.00,,,-99.99,,2013-04-02 10:03:00,
2013-04-02 06:13:00,22.0,17.0,-100.00,West,260,6.0,6.0,79,0.00,,,-99.99,,2013-04-02 10:13:00,
2013-04-02 06:23:00,22.0,17.0,-100.00,West,265,4.0,6.0,80,0.00,,,-99.99,,2013-04-02 10:23:00,
2013-04-02 06:33:00,22.0,17.0,-100.00,West,260,5.0,6.0,80,0.00,,,-99.99,,2013-04-02 10:33:00,
2013-04-02 06:42:00,22.0,17.0,-100.00,West,260,5.0,6.0,80,0.00,,,-99.99,,2013-04-02 10:42:00,
2013-04-02 06:52:00,21.0,16.0,-100.00,WSW,250,5.0,6.0,81,0.00,,,-99.99,,2013-04-02 10:52:00,
2013-04-02 07:02:00,21.0,17.0,-100.00,WSW,240,7.0,9.0,83,0.00,,,-99.99,,2013-04-02 11:02:00,
2013-04-02 07:12:00,21.0,17.0,-100.00,WSW,250,6.0,7.0,83,0.00,,,-99.99,,2013-04-02 11:12:00,
2013-04-02 07:22:00,22.0,18.0,-100.00,West,260,6.0,6.0,83,0.00,,,-99.99,,2013-04-02 11:22:00,
2013-04-02 07:33:00,21.0,17.0,-100.00,West,270,6.0,7.0,83,0.00,,,-99.99,,2013-04-02 11:33:00,
2013-04-02 07:43:00,22.0,18.0,-100.00,West,260,6.0,7.0,83,0.00,,,-99.99,,2013-04-02 11:43:00,
2013-04-02 07:52:00,22.0,18.0,-100.00,West,275,5.0,6.0,83,0.00,,,-99.99,,2013-04-02 11:52:00,
2013-04-02 08:02:00,22.0,18.0,-100.00,West,270,6.0,7.0,83,0.00,,,-99.99,,2013-04-02 12:02:00,
2013-04-02 08:12:00,23.0,19.0,-100.00,West,275,4.0,6.0,83,0.00,,,-99.99,,2013-04-02 12:12:00,
2013-04-02 08:23:00,24.0,20.0,-100.00,West,275,5.0,6.0,83,0.00,,,-99.99,,2013-04-02 12:23:00,
2013-04-02 08:32:00,25.0,21.0,-100.00,West,275,6.0,6.0,83,0.00,,,-99.99,,2013-04-02 12:32:00,
2013-04-02 08:42:00,26.0,22.0,-100.00,West,280,6.0,7.0,83,0.00,,,-99.99,,2013-04-02 12:42:00,
2013-04-02 08:52:00,28.0,23.0,-100.00,West,275,4.0,6.0,82,0.00,,,-99.99,,2013-04-02 12:52:00,
2013-04-02 09:02:00,28.0,23.0,-100.00,West,265,4.0,8.0,81,0.00,,,-99.99,,2013-04-02 13:02:00,
2013-04-02 09:12:00,29.0,24.0,-100.00,WNW,285,5.0,7.0,79,0.00,,,-99.99,,2013-04-02 13:12:00,
2013-04-02 09:22:00,30.0,24.0,-100.00,WNW,295,7.0,9.0,77,0.00,,,-99.99,,2013-04-02 13:22:00,
2013-04-02 09:33:00,31.0,24.0,-100.00,West,275,8.0,9.0,76,0.00,,,-99.99,,2013-04-02 13:33:00,
2013-04-02 09:42:00,31.0,24.0,-100.00,West,270,7.0,10.0,74,0.00,,,-99.99,,2013-04-02 13:42:00,
2013-04-02 09:52:00,32.0,24.0,-100.00,WNW,285,6.0,9.0,72,0.00,,,-99.99,,2013-04-02 13:52:00,
2013-04-02 10:02:00,33.0,23.0,-100.00,WNW,300,4.0,9.0,66,0.00,,,-99.99,,2013-04-02 14:02:00,
2013-04-02 10:12:00,33.0,22.0,-100.00,WNW,295,9.0,11.0,61,0.00,,,-99.99,,2013-04-02 14:12:00,
2013-04-02 10:23:00,33.0,18.0,-100.00,NW,320,6.0,11.0,52,0.00,,,-99.99,,2013-04-02 14:23:00,
2013-04-02 10:32:00,35.0,17.0,-100.00,NW,320,7.0,12.0,48,0.00,,,-99.99,,2013-04-02 14:32:00,
2013-04-02 10:42:00,35.0,16.0,-100.00,NW,325,4.0,12.0,46,0.00,,,-99.99,,2013-04-02 14:42:00,
2013-04-02 10:52:00,34.0,14.0,-100.00,NNW,340,8.0,14.0,44,0.00,,,-99.99,,2013-04-02 14:52:00,
2013-04-02 11:02:00,36.0,15.0,-100.00,NW,315,10.0,14.0,42,0.00,,,-99.99,,2013-04-02 15:02:00,
2013-04-02 11:11:00,36.0,15.0,-100.00,WNW,295,9.0,18.0,41,0.00,,,-99.99,,2013-04-02 15:11:00,
2013-04-02 11:22:00,37.0,15.0,-100.00,WNW,285,7.0,13.0,40,0.00,,,-99.99,,2013-04-02 15:22:00,
2013-04-02 11:33:00,37.0,15.0,-100.00,NW,305,12.0,18.0,40,0.00,,,-99.99,,2013-04-02 15:33:00,
2013-04-02 11:43:00,37.0,15.0,-100.00,NW,325,7.0,17.0,40,0.00,,,-99.99,,2013-04-02 15:43:00,
2013-04-02 11:55:00,37.0,15.0,-100.00,WNW,295,12.0,22.0,41,0.00,,,-99.99,,2013-04-02 15:55:00,
2013-04-02 12:04:00,37.0,16.0,-100.00,WNW,290,7.0,16.0,41,0.00,,,-99.99,,2013-04-02 16:04:00,
2013-04-02 12:13:00,38.0,17.0,-100.00,WNW,285,9.0,21.0,41,0.00,,,-99.99,,2013-04-02 16:13:00,
2013-04-02 12:24:00,38.0,16.0,-100.00,West,280,11.0,22.0,40,0.00,,,-99.99,,2013-04-02 16:24:00,
2013-04-02 12:37:00,38.0,16.0,-100.00,West,275,9.0,18.0,40,0.00,,,-99.99,,2013-04-02 16:37:00,
2013-04-02 12:44:00,37.0,15.0,-100.00,WNW,290,16.0,19.0,40,0.00,,,-99.99,,2013-04-02 16:44:00,
2013-04-02 12:53:00,39.0,17.0,-100.00,West,280,11.0,18.0,38,0.00,,,-99.99,,2013-04-02 16:53:00,
2013-04-02 13:05:00,40.0,16.0,-100.00,West,270,12.0,22.0,38,0.00,,,-99.99,,2013-04-02 17:05:00,
2013-04-02 13:13:00,39.0,16.0,-100.00,WNW,290,16.0,21.0,38,0.00,,,-99.99,,2013-04-02 17:13:00,
2013-04-02 13:25:00,40.0,17.0,-100.00,WNW,290,14.0,20.0,38,0.00,,,-99.99,,2013-04-02 17:25:00,
2013-04-02 13:35:00,41.0,17.0,-100.00,West,275,13.0,19.0,37,0.00,,,-99.99,,2013-04-02 17:35:00,
2013-04-02 13:43:00,39.0,15.0,-100.00,WSW,250,14.0,19.0,36,0.00,,,-99.99,,2013-04-02 17:43:00,
2013-04-02 13:54:00,40.0,17.0,-100.00,West,270,16.0,21.0,37,0.00,,,-99.99,,2013-04-02 17:54:00,
2013-04-02 14:04:00,39.0,16.0,-100.00,West,270,12.0,17.0,38,0.00,,,-99.99,,2013-04-02 18:04:00,
2013-04-02 14:12:00,40.0,16.0,-100.00,West,260,12.0,21.0,38,0.00,,,-99.99,,2013-04-02 18:12:00,
2013-04-02 14:23:00,40.0,16.0,-100.00,NW,310,9.0,21.0,37,0.00,,,-99.99,,2013-04-02 18:23:00,
2013-04-02 14:34:00,41.0,17.0,-100.00,WNW,295,14.0,20.0,37,0.00,,,-99.99,,2013-04-02 18:34:00,
2013-04-02 14:43:00,41.0,17.0,-100.00,WNW,295,16.0,24.0,36,0.00,,,-99.99,,2013-04-02 18:43:00,
2013-04-02 14:54:00,41.0,17.0,-100.00,WNW,285,16.0,20.0,36,0.00,,,-99.99,,2013-04-02 18:54:00,
2013-04-02 15:03:00,42.0,17.0,-100.00,WNW,285,17.0,22.0,36,0.00,,,-99.99,,2013-04-02 19:03:00,
2013-04-02 15:13:00,41.0,16.0,-100.00,WNW,300,14.0,22.0,36,0.00,,,-99.99,,2013-04-02 19:13:00,
2013-04-02 15:23:00,42.0,17.0,-100.00,West,270,12.0,17.0,36,0.00,,,-99.99,,2013-04-02 19:23:00,
2013-04-02 15:34:00,43.0,17.0,-100.00,West,270,17.0,22.0,34,0.00,,,-99.99,,2013-04-02 19:34:00,
2013-04-02 15:45:00,44.0,18.0,-100.00,NW,325,17.0,27.0,35,0.00,,,-99.99,,2013-04-02 19:45:00,
2013-04-02 15:53:00,44.0,18.0,-100.00,West,280,15.0,20.0,34,0.00,,,-99.99,,2013-04-02 19:53:00,
2013-04-02 16:03:00,44.0,18.0,-100.00,WNW,290,14.0,19.0,34,0.00,,,-99.99,,2013-04-02 20:03:00,
2013-04-02 16:13:00,44.0,16.0,-100.00,WSW,255,15.0,21.0,32,0.00,,,-99.99,,2013-04-02 20:13:00,
2013-04-02 16:22:00,44.0,17.0,-100.00,WNW,285,15.0,24.0,32,0.00,,,-99.99,,2013-04-02 20:22:00,
2013-04-02 16:33:00,43.0,15.0,-100.00,NW,305,16.0,24.0,32,0.00,,,-99.99,,2013-04-02 20:33:00,
2013-04-02 16:44:00,43.0,15.0,-100.00,NW,305,16.0,24.0,32,0.00,,,-99.99,,2013-04-02 20:44:00,
2013-04-02 16:53:00,44.0,16.0,-100.00,WNW,300,17.0,24.0,32,0.00,,,-99.99,,2013-04-02 20:53:00,
2013-04-02 17:04:00,44.0,17.0,-100.00,NW,305,16.0,20.0,32,0.00,,,-99.99,,2013-04-02 21:04:00,
2013-04-02 17:13:00,44.0,15.0,-100.00,West,280,14.0,24.0,31,0.00,,,-99.99,,2013-04-02 21:13:00,
2013-04-02 17:23:00,45.0,16.0,-100.00,WNW,295,21.0,25.0,31,0.00,,,-99.99,,2013-04-02 21:23:00,
2013-04-02 17:34:00,45.0,16.0,-100.00,NW,305,11.0,24.0,31,0.00,,,-99.99,,2013-04-02 21:34:00,
2013-04-02 17:44:00,45.0,16.0,-100.00,NW,305,11.0,24.0,31,0.00,,,-99.99,,2013-04-02 21:44:00,
2013-04-02 17:54:00,45.0,15.0,-100.00,WNW,285,19.0,25.0,30,0.00,,,-99.99,,2013-04-02 21:54:00,
2013-04-02 18:04:00,44.0,15.0,-100.00,WNW,295,13.0,21.0,30,0.00,,,-99.99,,2013-04-02 22:04:00,
2013-04-02 18:14:00,43.0,15.0,-100.00,NW,310,17.0,25.0,30,0.00,,,-99.99,,2013-04-02 22:14:00,
2013-04-02 18:25:00,44.0,15.0,-100.00,WNW,300,12.0,20.0,30,0.00,,,-99.99,,2013-04-02 22:25:00,
2013-04-02 18:33:00,43.0,14.0,-100.00,NW,305,14.0,25.0,30,0.00,,,-99.99,,2013-04-02 22:33:00,
2013-04-02 18:43:00,42.0,14.0,-100.00,NW,310,14.0,22.0,30,0.00,,,-99.99,,2013-04-02 22:43:00,
2013-04-02 18:53:00,42.0,13.0,-100.00,WNW,290,16.0,21.0,30,0.00,,,-99.99,,2013-04-02 22:53:00,
2013-04-02 19:03:00,41.0,13.0,-100.00,NW,305,15.0,22.0,30,0.00,,,-99.99,,2013-04-02 23:03:00,
2013-04-02 19:13:00,41.0,13.0,-100.00,WNW,300,14.0,23.0,31,0.00,,,-99.99,,2013-04-02 23:13:00,
2013-04-02 19:23:00,41.0,13.0,-100.00,WNW,300,14.0,23.0,31,0.00,,,-99.99,,2013-04-02 23:23:00,
2013-04-02 19:35:00,40.0,12.0,-100.00,WNW,295,17.0,24.0,32,0.00,,,-99.99,,2013-04-02 23:35:00,
2013-04-02 19:43:00,39.0,12.0,-100.00,NW,315,16.0,21.0,32,0.00,,,-99.99,,2013-04-02 23:43:00,
2013-04-02 19:52:00,38.0,12.0,-100.00,NW,305,15.0,21.0,33,0.00,,,-99.99,,2013-04-02 23:52:00,
2013-04-02 20:04:00,38.0,12.0,-100.00,WNW,300,16.0,21.0,34,0.00,,,-99.99,,2013-04-03 00:04:00,
2013-04-02 20:13:00,37.0,11.0,-100.00,NW,310,16.0,21.0,34,0.00,,,-99.99,,2013-04-03 00:13:00,
2013-04-02 20:24:00,36.0,11.0,-100.00,NW,315,14.0,20.0,35,0.00,,,-99.99,,2013-04-03 00:24:00,
2013-04-02 20:34:00,35.0,11.0,-100.00,NW,305,12.0,17.0,36,0.00,,,-99.99,,2013-04-03 00:34:00,
2013-04-02 20:47:00,35.0,11.0,-100.00,NW,315,12.0,19.0,36,0.00,,,-99.99,,2013-04-03 00:47:00,
2013-04-02 20:53:00,34.0,11.0,-100.00,NW,315,11.0,14.0,37,0.00,,,-99.99,,2013-04-03 00:53:00,
2013-04-02 21:04:00,34.0,11.0,-100.00,NW,315,11.0,14.0,37,0.00,,,-99.99,,2013-04-03 01:04:00,
2013-04-02 21:12:00,34.0,11.0,-100.00,NW,315,11.0,18.0,38,0.00,,,-99.99,,2013-04-03 01:12:00,
2013-04-02 21:23:00,33.0,11.0,-100.00,NW,310,11.0,19.0,38,0.00,,,-99.99,,2013-04-03 01:23:00,
2013-04-02 21:33:00,33.0,10.0,-100.00,NW,310,11.0,15.0,38,0.00,,,-99.99,,2013-04-03 01:33:00,
2013-04-02 21:42:00,33.0,10.0,-100.00,NW,315,6.0,12.0,38,0.00,,,-99.99,,2013-04-03 01:42:00,
2013-04-02 21:53:00,32.0,9.0,-100.00,NW,310,6.0,11.0,38,0.00,,,-99.99,,2013-04-03 01:53:00,
2013-04-02 22:04:00,31.0,9.0,-100.00,NW,325,4.0,7.0,38,0.00,,,-99.99,,2013-04-03 02:04:00,
2013-04-02 22:13:00,31.0,9.0,-100.00,NW,325,4.0,7.0,40,0.00,,,-99.99,,2013-04-03 02:13:00,
2013-04-02 22:24:00,31.0,9.0,-100.00,NW,320,4.0,7.0,40,0.00,,,-99.99,,2013-04-03 02:24:00,
2013-04-02 22:34:00,31.0,9.0,-100.00,NW,310,3.0,7.0,40,0.00,,,-99.99,,2013-04-03 02:34:00,
2013-04-02 22:43:00,30.0,9.0,-100.00,NW,320,4.0,7.0,40,0.00,,,-99.99,,2013-04-03 02:43:00,
2013-04-02 22:52:00,30.0,9.0,-100.00,NNW,330,4.0,8.0,40,0.00,,,-99.99,,2013-04-03 02:52:00,
2013-04-02 23:14:00,30.0,9.0,-100.00,NW,325,4.0,8.0,40,0.00,,,-99.99,,2013-04-03 03:14:00,
2013-04-02 23:23:00,29.0,9.0,-100.00,NW,315,4.0,6.0,42,0.00,,,-99.99,,2013-04-03 03:23:00,
2013-04-02 23:38:00,29.0,9.0,-100.00,NW,320,4.0,7.0,43,0.00,,,-99.99,,2013-04-03 03:38:00,
2013-04-02 23:44:00,29.0,9.0,-100.00,NW,315,4.0,7.0,43,0.00,,,-99.99,,2013-04-03 03:44:00,
2013-04-02 23:53:00,28.0,9.0,-100.00,NW,310,3.0,6.0,44,0.00,,,-99.99,,2013-04-03 03:53:00,